Helicity
37 64 45 48 61 49 54 61 70 92 188 222 233 195 156 77 53 190 166 203 232 185 195 247 288 300 331 295 251 204 172 141 112 97 81 62 50 48 38 68 90 60 47 55
40 86 105 69 77 69 52 51 51 47 214 117 123 158 53 29 53 80 180 159 273 184 235 289 305 333 325 276 242 232 199 157 138 109 91 74 74 65 58 66 69 68 47 58
64 116 113 71 77 85 59 68 85 110 82 71 62 7 77 51 45 50 162 156 204 280 264 269 339 328 286 284 271 247 197 166 146 119 87 70 65 62 50 34 28 65 64 48
91 104 94 85 102 105 48 101 85 103 70 36 61 54 80 62 60 35 31 32 70 191 260 310 351 292 260 276 269 252 201 170 137 105 90 78 71 64 63 65 74 65 36 42
89 107 102 95 130 123 78 89 110 98 67 91 44 72 55 132 67 77 51 54 49 77 221 301 380 293 260 315 289 225 186 156 131 120 115 108 90 83 72 69 73 73 73 81
128 115 144 130 119 123 73 81 93 83 69 42 46 105 85 157 100 51 45 75 69 79 106 264 327 348 325 311 232 209 188 156 135 124 106 93 84 75 81 91 108 95 100 65
103 125 131 138 134 121 103 104 53 69 47 62 136 137 42 155 110 62 48 54 63 76 139 219 302 328 326 236 198 197 179 155 142 140 130 107 86 83 81 104 128 115 94 83
115 98 140 146 153 143 140 104 99 105 131 193 165 69 72 193 125 56 43 32 66 75 82 121 178 217 189 158 163 173 175 181 163 140 125 103 84 93 97 151 141 119 106 90
131 140 184 207 157 146 154 141 162 183 171 199 93 142 224 175 151 56 43 42 32 81 64 84 96 104 149 169 174 191 214 198 173 150 128 99 81 77 100 129 122 113 108 109
187 184 197 187 167 191 205 194 209 201 159 133 203 159 133 239 204 40 8 -21 56 46 76 62 92 134 161 182 232 249 250 241 211 166 119 98 91 94 126 120 109 109 110 112
205 239 215 238 171 206 254 226 227 227 196 204 199 183 236 148 86 124 227 180 126 81 69 56 88 182 262 283 242 227 234 223 186 143 114 107 124 131 105 102 106 110 109 103
239 258 244 192 246 248 246 217 275 250 218 336 377 303 190 198 196 278 365 352 242 191 137 142 183 338 302 251 267 304 230 198 187 149 153 157 118 93 84 100 106 112 113 102
213 267 253 225 270 225 265 310 319 292 345 401 359 448 303 187 265 243 133 138 127 97 113 206 437 429 403 327 315 278 224 184 152 129 123 105 80 89 105 126 104 97 105 112
288 379 388 341 286 256 355 341 301 348 401 303 401 227 184 173 98 -70 -65 74 140 121 106 116 166 267 277 237 209 190 156 127 107 100 93 98 127 146 127 104 107 110 117 128
307 362 313 265 227 221 225 227 273 338 271 295 195 196 150 72 16 118 109 104 96 91 102 134 197 219 196 150 149 182 186 156 126 120 133 124 102 100 111 122 125 134 143 138
403 399 351 317 215 185 190 152 134 172 201 225 160 174 213 149 158 196 178 118 99 110 116 143 156 154 137 151 171 143 117 101 82 95 85 85 103 117 128 133 140 149 146 141
448 368 307 288 257 229 317 178 185 274 189 215 306 289 165 210 223 172 124 101 130 140 136 189 203 214 210 136 93 97 75 49 56 69 77 89 103 112 122 128 138 144 137 132
468 416 328 355 299 333 255 201 188 219 264 270 219 179 173 140 175 118 58 34 45 69 97 164 213 213 126 66 38 22 28 50 57 70 74 83 88 104 114 122 138 145 149 145
368 361 375 381 346 338 237 324 306 286 207 220 198 171 192 166 57 0 -33 27 43 81 147 166 149 92 35 -3 2 16 35 41 58 71 91 99 116 113 110 111 133 151 144 146
389 377 355 383 376 390 318 242 160 115 258 310 237 66 -14 -113 -11 5 83 104 122 125 112 90 51 31 9 -6 4 32 26 36 61 81 99 105 109 104 116 137 153 159 158 174
291 291 292 254 286 344 285 234 149 235 278 100 -58 -91 -73 -30 -35 14 86 107 103 75 36 37 37 19 -3 7 16 34 38 51 67 90 102 106 108 112 122 138 154 156 164 162
266 274 249 188 232 317 217 140 233 130 33 -8 -42 -28 -12 28 49 66 60 55 41 47 63 55 50 35 11 10 26 40 53 77 106 111 120 102 100 113 121 126 135 135 134 128
281 209 234 261 286 205 64 -11 -39 19 -3 7 59 51 58 76 95 89 78 65 63 58 61 57 48 44 51 44 56 73 84 99 96 106 113 112 109 114 118 117 113 117 105 103
268 253 259 243 206 151 112 39 10 12 22 35 17 35 46 59 62 68 85 78 77 76 70 70 72 83 82 85 82 91 101 106 108 116 117 116 112 93 91 92 88 88 94 97
135 162 154 150 140 150 100 2 62 90 55 51 52 44 44 78 85 105 89 76 80 76 84 105 100 112 111 107 114 123 141 129 124 124 117 104 97 95 88 89 95 91 101 101
122 123 148 171 62 31 37 68 78 83 70 52 58 58 74 97 90 87 83 87 89 81 88 104 112 103 105 121 141 149 158 146 125 111 106 95 83 96 97 99 98 54 36 17
Wind_Speed
41 41 46 49 49 48 50 55 60 62 60 67 57 51 40 44 43 30 25 21 21 23 18 15 12 12 12 13 15 16 18 22 26 30 35 37 38 37 42 40 45 50 52 54
42 42 42 43 47 49 53 60 63 64 65 80 64 45 48 45 44 36 16 21 15 15 15 16 14 14 15 15 15 16 19 24 28 32 35 37 40 43 45 45 46 47 51 54
44 41 40 46 50 54 57 57 65 71 82 58 75 60 49 47 49 47 37 31 16 9 11 14 16 18 18 17 16 18 21 25 30 35 36 38 41 45 47 46 49 49 54 54
42 39 43 47 51 52 64 57 68 76 76 70 66 73 54 50 45 47 41 35 30 22 8 9 11 14 17 17 16 19 23 27 32 36 39 42 46 50 50 51 53 56 55 55
43 43 47 53 48 51 57 65 67 62 61 63 52 64 57 50 52 46 46 40 35 29 16 8 8 10 14 17 20 23 26 30 35 39 43 46 49 51 52 55 57 59 58 57
41 40 45 44 45 47 59 64 59 53 54 61 51 63 60 56 53 51 44 43 39 33 25 13 8 9 14 16 22 25 29 33 37 41 44 48 53 56 59 60 63 64 62 62
42 43 41 43 46 48 58 66 71 66 64 63 50 66 46 50 51 50 47 43 37 33 28 20 16 15 19 22 24 27 31 37 39 44 48 51 54 57 60 62 64 67 66 64
50 57 44 46 51 54 56 54 62 74 71 71 58 53 54 49 47 45 44 38 37 35 30 26 25 26 28 26 28 31 35 40 40 44 48 52 54 57 60 62 65 65 65 65
53 50 43 50 49 46 50 56 50 59 58 62 51 50 48 43 46 45 45 46 46 37 32 29 28 27 27 29 30 35 39 42 44 48 52 55 57 59 62 64 65 65 65 66
49 61 49 47 44 47 46 45 58 54 64 70 59 59 51 51 54 49 46 44 36 33 34 35 34 36 36 35 33 37 42 45 47 50 54 57 60 63 65 66 66 66 67 67
48 53 56 50 51 51 50 53 46 50 53 65 76 59 48 69 62 54 52 43 44 45 45 45 44 38 37 39 41 41 44 48 52 56 60 62 66 66 65 66 68 69 69 70
47 54 65 60 53 47 48 47 43 57 66 59 70 82 54 56 56 54 57 62 66 66 67 66 47 39 43 44 42 43 48 54 57 60 63 68 68 68 70 71 71 71 74 73
44 58 76 70 60 51 51 46 48 57 64 68 77 72 54 56 60 73 82 79 76 70 68 60 50 49 52 53 54 57 57 60 64 70 70 69 71 71 74 76 77 76 75 75
45 60 64 74 72 71 73 67 59 57 71 78 67 82 73 75 79 78 70 65 63 61 59 54 50 51 53 55 56 60 66 66 68 70 73 76 79 80 82 79 78 78 76 80
52 75 71 71 76 79 79 75 66 66 66 72 83 83 83 81 70 63 63 65 64 63 59 56 56 56 57 60 65 68 70 73 76 79 82 83 83 82 81 82 82 83 82 83
59 81 79 88 80 78 81 70 68 67 70 74 76 81 61 57 61 70 72 69 69 66 62 60 60 63 66 69 72 74 77 79 79 83 85 84 85 84 85 86 86 86 87 86
65 72 82 100 78 83 88 75 65 63 56 61 73 62 57 74 78 78 78 74 72 66 63 64 66 66 66 69 73 80 80 81 83 85 86 86 86 88 87 86 87 88 88 86
66 68 70 87 82 97 66 53 54 54 62 60 59 64 69 75 76 79 71 65 61 61 60 60 61 65 69 72 77 79 81 84 86 88 88 86 85 85 84 86 87 87 86 90
52 58 72 81 81 79 75 67 64 66 67 61 70 73 75 78 75 63 60 60 59 57 58 60 62 65 70 76 79 84 87 88 87 89 87 85 84 90 90 90 89 88 89 88
53 53 62 73 86 96 72 56 58 59 78 67 70 70 75 75 86 71 65 60 58 59 60 63 64 70 75 79 80 88 91 89 88 87 90 89 87 88 89 87 89 86 83 79
65 63 72 77 85 75 59 62 59 83 78 61 63 68 69 71 64 60 59 60 57 60 62 65 71 77 78 81 84 88 88 92 90 89 88 86 87 86 82 85 82 80 76 74
72 76 76 72 83 97 54 57 67 58 58 55 57 59 62 61 61 62 64 66 67 68 68 70 77 82 83 85 88 92 93 92 92 92 92 90 85 84 82 81 78 71 69 69
83 69 77 73 73 51 51 45 45 45 49 53 57 61 63 66 68 67 66 67 68 68 72 74 81 87 83 82 84 91 93 91 91 86 83 81 78 75 72 70 69 68 65 65
61 53 66 66 49 46 40 40 43 42 48 50 53 61 64 68 68 67 67 70 71 70 73 75 78 80 82 81 81 82 83 82 80 78 77 73 70 68 67 66 64 63 61 60
63 56 55 56 46 41 37 35 36 45 50 54 58 62 66 67 68 66 69 69 69 70 71 70 75 73 74 74 78 77 74 73 72 71 67 64 62 62 64 59 57 54 49 43
52 54 53 50 34 35 35 37 41 53 61 64 67 69 66 65 64 65 67 67 68 69 67 69 66 69 73 76 76 72 70 68 66 64 62 61 61 60 59 56 53 47 42 45
Wind_Direction
359 356 347 354 358 358 356 352 350 354 357 351 349 336 325 326 317 304 299 292 283 278 271 263 251 251 258 271 281 295 309 322 328 329 331 333 334 338 338 343 344 344 343 344
355 349 356 -0 357 354 352 348 348 352 355 345 355 346 356 360 350 327 299 306 279 278 260 260 248 253 257 263 275 293 307 319 325 327 329 331 331 331 333 336 340 344 342 341
350 352 358 352 351 348 349 350 347 344 342 357 354 0 7 9 4 348 336 332 325 249 253 246 249 257 262 262 271 288 303 315 322 325 327 327 329 330 333 335 337 338 339 339
355 360 353 350 348 348 342 350 344 341 344 348 357 351 4 3 9 4 354 344 324 326 265 235 239 255 261 268 278 292 304 314 320 323 322 322 322 324 329 330 331 332 334 335
352 351 348 343 348 349 343 343 341 344 345 348 357 352 358 4 358 0 354 352 344 324 323 262 248 266 274 278 281 293 302 310 316 319 320 320 320 323 325 326 327 328 330 332
353 358 352 351 352 352 346 344 344 347 348 345 354 352 351 352 351 347 353 351 348 340 324 316 295 295 299 288 288 294 302 307 313 315 317 317 317 318 319 321 322 324 326 327
352 353 358 356 351 353 350 347 340 339 340 340 354 344 352 357 356 349 346 348 349 346 343 334 319 311 308 300 294 296 301 305 310 312 315 317 318 318 318 319 321 321 322 324
342 338 352 353 350 346 349 350 342 331 333 333 340 344 349 355 358 357 354 355 351 343 335 325 315 310 309 304 299 301 304 307 310 312 314 316 317 317 318 319 318 318 319 321
338 339 350 347 349 352 349 343 347 334 334 334 342 345 350 359 358 353 350 345 340 338 337 332 323 317 312 310 305 306 308 310 311 313 316 317 318 317 317 317 317 317 318 318
338 330 341 346 351 348 343 348 337 337 332 331 335 334 336 346 346 345 344 345 350 348 340 330 324 318 316 315 313 312 313 313 314 315 316 316 316 315 315 315 315 315 316 316
337 331 333 339 336 335 337 335 337 334 330 327 327 332 345 334 336 338 343 347 341 335 330 324 318 317 318 317 315 315 316 316 316 316 316 316 316 315 315 314 314 314 314 314
332 329 324 327 334 338 334 332 330 325 324 321 319 316 338 343 342 341 337 334 332 327 324 323 319 324 326 322 323 321 319 318 317 317 316 316 316 315 314 313 313 313 312 312
329 324 323 325 331 336 329 330 325 321 319 309 309 314 331 337 335 329 324 323 325 325 323 320 324 322 322 323 321 318 318 317 316 315 315 315 314 313 312 312 312 313 312 312
325 316 312 311 316 322 317 315 314 311 310 310 303 307 312 319 322 327 331 335 337 338 338 336 328 325 324 323 322 320 318 318 318 316 314 313 313 313 313 313 313 313 313 311
318 311 311 308 311 312 310 310 308 302 299 300 309 309 314 320 325 330 332 332 331 331 332 331 329 327 325 323 321 320 319 318 318 316 315 314 314 315 315 314 314 313 312 311
315 310 314 310 312 310 308 309 307 303 302 302 306 310 325 329 330 327 327 326 325 325 327 327 326 323 321 320 320 320 319 319 320 318 317 317 316 315 314 314 313 312 311 311
309 311 314 309 317 318 312 314 312 317 320 318 315 321 325 324 324 324 325 324 323 324 325 325 325 326 325 324 323 322 321 321 320 319 318 317 316 315 314 314 313 312 311 311
303 308 311 309 315 310 321 335 334 330 328 328 325 325 324 325 325 325 327 328 330 329 328 330 330 329 328 327 326 325 325 323 321 320 319 319 318 316 317 316 314 313 312 311
308 308 309 309 308 310 312 320 322 323 320 329 324 325 325 326 328 332 335 334 331 330 332 332 332 331 330 329 327 325 325 325 324 322 322 322 321 318 317 316 315 314 313 312
317 313 306 310 308 308 316 324 329 324 313 329 330 330 330 329 324 327 331 333 334 333 331 330 331 331 330 329 328 326 325 325 325 325 323 322 321 320 318 318 317 316 315 313
313 312 305 305 306 309 317 322 327 313 316 334 335 334 334 333 332 333 335 334 335 335 334 332 330 329 330 330 329 327 327 325 326 326 325 324 323 321 321 320 320 319 318 317
309 309 308 310 307 305 324 323 319 324 330 333 335 336 336 338 337 336 334 333 333 332 333 333 331 330 331 330 329 327 327 328 327 327 325 325 325 324 323 323 323 323 323 321
304 304 306 309 310 322 330 331 334 336 336 336 336 338 337 336 335 334 334 335 335 335 334 334 332 330 332 333 333 330 330 330 330 331 331 331 331 331 331 331 330 329 328 326
316 319 310 312 320 324 333 336 336 338 339 341 341 338 337 335 336 336 336 335 336 337 337 337 337 336 336 337 337 336 335 336 335 336 336 337 338 338 339 338 337 335 334 332
313 317 315 314 323 329 335 341 347 345 345 343 342 340 338 339 338 339 338 339 340 340 341 343 341 341 342 343 341 341 341 341 340 341 342 344 345 344 343 344 343 343 342 341
316 314 313 318 331 335 340 345 344 340 339 339 337 337 340 341 341 342 341 341 341 342 344 344 346 345 344 344 344 345 345 345 345 346 347 347 347 348 348 348 348 349 347 345